VADSO current weather conditions

sailwx.info

Wind from 310 at 21 knots

Air temperature -6.0° C
Visibility: greater than 2.7 NM
Dewpoint -8.0° C
Present weather: Blowing snow. Light low drifting snow.

Last reported at 2020-Jan-22 13:50 UTC.
Time now 2020-Jan-22 15:15 UTC

Location: N 70°04' E 029°51'.
View on Google Maps.

See reports from other nearby stations

  
Tides and Currents Weather Stations Pressure Air Temp Water Temp Dewpoint Dewpoint Depression Visibility Wind Speed Wind Dir Waves Ship Positions
date/time (UTC)wind fromknots sea level pressurealtimeterstation pressurevisibilityair tempwater tempwave heightnotes
2020-Jan-22 13:50 310 21 2.7-6.0 Blowing snow. Light low drifting snow.
2020-Jan-22 12:50 310 21 0.3-6.0 Snow showers. Blowing snow.
2020-Jan-22 12:20 300 20 1.1-7.0 Snow showers. Blowing snow.
2020-Jan-22 11:50 310 18 5.4-7.0 Showers in the vicinity. Light low drifting snow.
2020-Jan-22 11:20 310 24 gusting 34 0.3-7.0 Snow showers. Heavy blowing snow.
2020-Jan-22 10:50 300 17 5.4-7.0 Snow showers. Light low drifting snow.
2020-Jan-22 10:20 300 24 1.1-7.0 Blowing snow. Snow showers.
2020-Jan-22 09:50 310 27 5.4-7.0 Blowing snow. Showers in the vicinity.
2020-Jan-22 09:20 310 27 5.4-7.0 Light low drifting snow. Showers in the vicinity.
2020-Jan-22 09:04 320 25 0.8-7.0 Blowing snow. Snow showers.
2020-Jan-22 08:50 310 18 5.4-8.0 Light low drifting snow. Showers in the vicinity.
2020-Jan-22 08:20 310 15 5.4-7.0 Light low drifting snow. Light snow showers.
2020-Jan-22 07:50 310 14 5.4-7.0 Light low drifting snow.
2020-Jan-22 07:20 280 6 3.2-7.0 Light snow.
2020-Jan-22 06:50 290 7 5.4-7.0 Showers in the vicinity.
2020-Jan-22 06:20 310 14 5.4-7.0 Showers in the vicinity.
2020-Jan-22 05:50 310 14 5.4-7.0 Showers in the vicinity.
2020-Jan-22 03:50 310 20 4.9-6.0 Light snow. Light low drifting snow.
2020-Jan-22 03:20 310 20 4.9-6.0 Light snow. Light low drifting snow.
2020-Jan-21 23:50 300 9 5.4-3.0 Light snow showers. Light low drifting snow.
2020-Jan-21 23:20 330 13 5.4-3.0 Light snow showers. Light low drifting snow.
2020-Jan-21 22:50 330 21 5.4-3.0 Light snow showers.
2020-Jan-21 22:20 350 12 5.4-3.0 Light snow showers.
2020-Jan-21 21:50 350 12 5.4-2.0
2020-Jan-21 21:20 360 18 5.4-2.0 Light low drifting snow.
2020-Jan-21 20:50 010 17 5.4-2.0 Light low drifting snow.
2020-Jan-21 20:20 020 20 5.4-2.0 Light low drifting snow.
2020-Jan-21 19:50 020 22 5.4-2.0 Light low drifting snow.
2020-Jan-21 19:20 010 26 5.4-1.0 Light low drifting snow.
2020-Jan-21 18:50 010 27 5.4-1.0 Blowing snow. Light low drifting snow.
2020-Jan-21 18:20 280 21 5.4-1.0 Light snow showers. Light low drifting snow.
2020-Jan-21 17:50 270 25 5.4-1.0 Light snow showers. Light low drifting snow.
2020-Jan-21 17:20 270 25 2.7-1.0 Light snow showers. Light low drifting snow.
2020-Jan-21 16:50 270 24 2.2-1.0 Light snow showers. Light low drifting snow.
2020-Jan-21 16:20 270 24 5.4-1.0 Light snow showers. Light low drifting snow.
2020-Jan-21 15:50 270 20 5.4-2.0
2020-Jan-21 15:20 270 18 5.4-2.0
2020-Jan-21 14:50 280 20 5.4-2.0
2020-Jan-21 14:20 280 20 5.4-3.0
2020-Jan-21 13:50 270 22 5.4-2.0
2020-Jan-21 13:20 270 21 5.4-1.0
2020-Jan-21 12:50 260 20 5.4-1.0
2020-Jan-21 12:20 270 14 5.4-2.0
2020-Jan-21 11:50 270 14 5.4-2.0
2020-Jan-21 11:20 270 12 5.4-3.0
2020-Jan-21 10:50 280 11 5.4-2.0
2020-Jan-21 10:20 280 9 5.4-2.0
2020-Jan-21 09:50 270 12 5.4-2.0
2020-Jan-21 09:20 260 17 5.4-1.0
2020-Jan-21 08:50 260 20 5.4-1.0 Showers in the vicinity.
2020-Jan-21 08:20 260 20 5.4-0.0 Showers in the vicinity.
2020-Jan-21 07:50 280 20 5.4-1.0 Showers in the vicinity.
2020-Jan-21 07:20 280 17 5.4-1.0
2020-Jan-21 06:50 270 14 5.4-1.0 Showers in the vicinity.
2020-Jan-21 06:20 290 17 5.4-1.0 Showers in the vicinity.
2020-Jan-21 05:50 280 14 5.4-2.0
2020-Jan-21 04:50 270 18 5.4
2020-Jan-21 04:20 280 13 5.4-2.0
2020-Jan-21 03:50 270 18 5.4-1.0
2020-Jan-21 03:20 280 13 5.4-2.0
2020-Jan-20 23:50 280 17 1.3-0.0 Snow.
2020-Jan-20 23:20 270 14 3.8-0.0 Light snow.
2020-Jan-20 22:50 270 14 3.8-0.0 Light snow.
2020-Jan-20 22:20 270 13 2.2-0.0 Snow.
2020-Jan-20 21:50 270 6 3.8-1.0 Light snow.
2020-Jan-20 20:50 280 8 4.9-2.0 Light snow.
2020-Jan-20 20:20 250 6 4.9-2.0 Light snow.
2020-Jan-20 19:50 290 6 5.4-3.0
2020-Jan-20 18:50 260 12 5.4-4.0
2020-Jan-20 18:20 280 7 5.4-4.0
2020-Jan-20 17:50 310 7 5.4-4.0
2020-Jan-20 17:20 270 7 5.4-4.0
2020-Jan-20 16:50 280 9 5.4-4.0
2020-Jan-20 15:50 280 11 5.4-4.0
2020-Jan-20 15:20 250 12 5.4-3.0